PHDDC EHLE-EHRD

Flight info

Callsign PHDDC
Flight time N/A
Altitude 4500
Route VFR
Aircraft BE36/L-BDFGLORY/S

Departure

Time 2026-05-06 19:02
Airport Lelystad Airport (EHLE)

Arrival

Time N/A
Airport Rotterdam The Hague Airport (EHRD)
Time Latitude Longitude Altitude Speed Heading
2026-05-06 18:46 52.45443 5.52161 -10 ft 0 kts 317°
2026-05-06 18:51 52.45444 5.52161 -10 ft 0 kts 316°
2026-05-06 18:54 52.45446 5.52156 -10 ft 0 kts 297°
2026-05-06 18:54 52.45447 5.52153 -10 ft 2 kts 297°
2026-05-06 18:55 52.45448 5.52149 -10 ft 0 kts 297°
2026-05-06 18:55 52.45450 5.52142 -10 ft 0 kts 296°
2026-05-06 18:56 52.45450 5.52141 -10 ft 0 kts 296°
2026-05-06 18:57 52.45460 5.52114 -10 ft 12 kts 289°
2026-05-06 18:57 52.45383 5.51959 -10 ft 11 kts 227°
2026-05-06 18:57 52.45302 5.51815 -10 ft 30 kts 227°
2026-05-06 18:58 52.45198 5.51612 -10 ft 22 kts 226°
2026-05-06 18:58 52.45085 5.51409 -10 ft 17 kts 228°
2026-05-06 18:58 52.45034 5.51284 -10 ft 9 kts 294°
2026-05-06 18:58 52.45065 5.51227 -10 ft 0 kts 320°
2026-05-06 19:01 52.45067 5.51224 -10 ft 3 kts 319°
2026-05-06 19:01 52.45119 5.51155 -5 ft 16 kts 345°
2026-05-06 19:01 52.45315 5.51444 -7 ft 71 kts 47°
2026-05-06 19:02 52.45683 5.52177 247 ft 88 kts 51°
2026-05-06 19:02 52.46081 5.53034 584 ft 94 kts 51°
2026-05-06 19:02 52.45999 5.54041 864 ft 120 kts 136°
2026-05-06 19:02 52.45190 5.54634 1019 ft 130 kts 157°
2026-05-06 19:03 52.44317 5.55011 1152 ft 129 kts 155°
2026-05-06 19:03 52.43459 5.55499 1188 ft 136 kts 150°
2026-05-06 19:03 52.42583 5.56209 1098 ft 143 kts 144°
2026-05-06 19:03 52.41705 5.56994 1054 ft 144 kts 146°
2026-05-06 19:04 52.40804 5.57729 1034 ft 144 kts 148°
2026-05-06 19:04 52.39893 5.58422 1031 ft 144 kts 149°
2026-05-06 19:04 52.38973 5.59087 1035 ft 144 kts 152°